TimeCDT,TemperatureF,Dew PointF,Humidity,Sea Level PressureIn,VisibilityMPH,Wind Direction,Wind SpeedMPH,Gust SpeedMPH,PrecipitationIn,Events,Conditions,WindDirDegrees,DateUTC
12:15 AM,59.0,51.8,77,29.95,10.0,South,5.8,-,N/A,,Clear,180,2012-11-02 05:15:00
12:35 AM,59.0,51.8,77,29.95,10.0,South,6.9,-,N/A,,Clear,190,2012-11-02 05:35:00
12:55 AM,59.0,51.8,77,29.95,10.0,South,6.9,-,N/A,,Clear,190,2012-11-02 05:55:00
1:15 AM,60.8,51.8,72,29.94,10.0,South,6.9,-,N/A,,Clear,190,2012-11-02 06:15:00
1:35 AM,59.0,51.8,77,29.94,10.0,South,6.9,-,N/A,,Clear,190,2012-11-02 06:35:00
1:55 AM,60.8,51.8,72,29.94,10.0,South,5.8,-,N/A,,Clear,190,2012-11-02 06:55:00
2:15 AM,62.6,51.8,68,29.95,10.0,SSW,4.6,-,N/A,,Clear,200,2012-11-02 07:15:00
2:35 AM,62.6,51.8,68,29.95,10.0,South,5.8,-,N/A,,Clear,190,2012-11-02 07:35:00
2:55 AM,60.8,51.8,72,29.95,10.0,South,5.8,-,N/A,,Clear,190,2012-11-02 07:55:00
3:15 AM,59.0,50.0,72,29.95,10.0,South,5.8,-,N/A,,Clear,180,2012-11-02 08:15:00
3:35 AM,57.2,50.0,77,29.95,10.0,South,5.8,-,N/A,,Clear,170,2012-11-02 08:35:00
3:55 AM,55.4,50.0,82,29.95,10.0,South,5.8,-,N/A,,Clear,180,2012-11-02 08:55:00
4:15 AM,57.2,50.0,77,29.94,10.0,South,5.8,-,N/A,,Clear,180,2012-11-02 09:15:00
4:35 AM,53.6,50.0,88,29.95,10.0,South,6.9,-,N/A,,Clear,180,2012-11-02 09:35:00
4:55 AM,55.4,50.0,82,29.95,10.0,South,4.6,-,N/A,,Clear,190,2012-11-02 09:55:00
5:15 AM,55.4,50.0,82,29.96,10.0,South,4.6,-,N/A,,Clear,180,2012-11-02 10:15:00
5:35 AM,55.4,50.0,82,29.96,10.0,South,4.6,-,N/A,,Clear,180,2012-11-02 10:35:00
5:55 AM,53.6,48.2,82,29.96,10.0,SSE,4.6,-,N/A,,Clear,160,2012-11-02 10:55:00
6:35 AM,53.6,50.0,88,29.97,10.0,Calm,Calm,-,N/A,,Clear,0,2012-11-02 11:35:00
6:55 AM,53.6,50.0,88,29.97,10.0,SSE,5.8,-,N/A,,Clear,150,2012-11-02 11:55:00
7:15 AM,53.6,50.0,88,29.97,10.0,SSE,4.6,-,N/A,,Clear,150,2012-11-02 12:15:00
7:35 AM,51.8,48.2,88,29.98,10.0,SSE,3.5,-,N/A,,Clear,160,2012-11-02 12:35:00
7:55 AM,53.6,48.2,82,29.98,10.0,SSE,6.9,-,N/A,,Clear,160,2012-11-02 12:55:00
8:15 AM,53.6,50.0,88,29.99,10.0,SSE,6.9,-,N/A,,Clear,160,2012-11-02 13:15:00
8:55 AM,59.0,53.6,82,30.00,10.0,South,4.6,-,N/A,,Clear,170,2012-11-02 13:55:00
9:35 AM,62.6,53.6,72,30.01,10.0,South,5.8,-,N/A,,Clear,170,2012-11-02 14:35:00
9:55 AM,64.4,53.6,68,30.01,10.0,South,5.8,-,N/A,,Clear,180,2012-11-02 14:55:00
10:15 AM,68.0,55.4,64,30.01,10.0,South,4.6,-,N/A,,Clear,170,2012-11-02 15:15:00
10:35 AM,71.6,55.4,57,30.02,10.0,SSW,4.6,-,N/A,,Clear,210,2012-11-02 15:35:00
10:55 AM,73.4,55.4,53,30.02,10.0,SSW,6.9,-,N/A,,Clear,200,2012-11-02 15:55:00
11:15 AM,73.4,55.4,53,30.01,10.0,SW,8.1,-,N/A,,Clear,220,2012-11-02 16:15:00
11:35 AM,77.0,55.4,47,30.02,10.0,SSW,8.1,-,N/A,,Clear,200,2012-11-02 16:35:00
11:55 AM,78.8,55.4,44,30.01,10.0,South,9.2,-,N/A,,Clear,190,2012-11-02 16:55:00
12:15 PM,80.6,51.8,37,30.01,10.0,SW,12.7,-,N/A,,Clear,220,2012-11-02 17:15:00
12:35 PM,82.4,51.8,35,30.00,10.0,SSW,15.0,20.7,N/A,,Clear,210,2012-11-02 17:35:00
12:55 PM,82.4,51.8,35,29.99,10.0,SW,11.5,18.4,N/A,,Clear,220,2012-11-02 17:55:00
1:15 PM,82.4,50.0,32,29.98,10.0,SW,11.5,19.6,N/A,,Clear,230,2012-11-02 18:15:00
1:35 PM,84.2,50.0,30,29.97,10.0,South,16.1,19.6,N/A,,Clear,190,2012-11-02 18:35:00
1:55 PM,86.0,50.0,29,29.96,10.0,SW,13.8,23.0,N/A,,Clear,220,2012-11-02 18:55:00
2:15 PM,86.0,48.2,27,29.95,10.0,SW,12.7,16.1,N/A,,Clear,220,2012-11-02 19:15:00
2:35 PM,86.0,46.4,25,29.94,10.0,SSW,11.5,19.6,N/A,,Clear,200,2012-11-02 19:35:00
2:55 PM,86.0,48.2,27,29.94,10.0,South,13.8,18.4,N/A,,Clear,190,2012-11-02 19:55:00
3:15 PM,86.0,46.4,25,29.93,10.0,South,11.5,17.3,N/A,,Clear,180,2012-11-02 20:15:00
3:55 PM,86.0,46.4,25,29.92,10.0,South,12.7,20.7,N/A,,Clear,190,2012-11-02 20:55:00
4:15 PM,86.0,42.8,22,29.91,10.0,South,12.7,18.4,N/A,,Clear,180,2012-11-02 21:15:00
4:35 PM,86.0,44.6,23,29.91,10.0,South,13.8,-,N/A,,Clear,190,2012-11-02 21:35:00
4:55 PM,86.0,44.6,23,29.91,10.0,South,12.7,17.3,N/A,,Clear,170,2012-11-02 21:55:00
5:15 PM,84.2,44.6,25,29.91,10.0,South,12.7,17.3,N/A,,Clear,180,2012-11-02 22:15:00
5:35 PM,82.4,44.6,26,29.91,10.0,SSE,12.7,18.4,N/A,,Clear,160,2012-11-02 22:35:00
5:55 PM,82.4,44.6,26,29.91,10.0,South,9.2,-,N/A,,Clear,170,2012-11-02 22:55:00
6:15 PM,80.6,44.6,28,29.91,10.0,SSE,9.2,-,N/A,,Clear,160,2012-11-02 23:15:00
6:35 PM,78.8,44.6,30,29.91,10.0,SSE,8.1,-,N/A,,Clear,160,2012-11-02 23:35:00
6:55 PM,77.0,44.6,32,29.92,10.0,SSE,8.1,-,N/A,,Clear,160,2012-11-02 23:55:00
7:55 PM,71.6,50.0,46,29.94,10.0,SSE,6.9,-,N/A,,Clear,150,2012-11-03 00:55:00
8:15 PM,71.6,50.0,46,29.94,10.0,SSE,8.1,-,N/A,,Clear,150,2012-11-03 01:15:00
8:35 PM,69.8,50.0,49,29.94,10.0,SSE,8.1,-,N/A,,Clear,160,2012-11-03 01:35:00
8:55 PM,69.8,50.0,49,29.94,10.0,SSE,9.2,-,N/A,,Clear,160,2012-11-03 01:55:00
9:15 PM,69.8,51.8,53,29.95,10.0,SSE,9.2,-,N/A,,Clear,160,2012-11-03 02:15:00
9:35 PM,68.0,51.8,56,29.95,10.0,SSE,6.9,-,N/A,,Clear,160,2012-11-03 02:35:00
9:55 PM,66.2,51.8,60,29.96,10.0,SSE,5.8,-,N/A,,Clear,160,2012-11-03 02:55:00
10:15 PM,64.4,51.8,64,29.96,10.0,SSE,6.9,-,N/A,,Clear,150,2012-11-03 03:15:00
10:35 PM,64.4,51.8,64,29.97,10.0,SSE,6.9,-,N/A,,Clear,160,2012-11-03 03:35:00
10:55 PM,64.4,53.6,68,29.96,10.0,SSE,6.9,-,N/A,,Clear,160,2012-11-03 03:55:00
11:15 PM,62.6,53.6,72,29.97,10.0,SSE,6.9,-,N/A,,Clear,160,2012-11-03 04:15:00
11:35 PM,62.6,53.6,72,29.97,10.0,SSE,6.9,-,N/A,,Clear,160,2012-11-03 04:35:00